Weather History for Orlando International, FL

Change the Weather History Date:

Sunday, March 9, 2014

  Actual Average Record
Temperature  
Mean Temperature 66 °F 66 °F  
Max Temperature 79 °F 77 °F 96 °F (1925)
Min Temperature 53 °F 55 °F 33 °F (1996)
Degree Days  
Heating Degree Days 0 2  
Month to date heating degree days 13 26  
Since 1 July heating degree days 377 525  
Cooling Degree Days 1 3  
Month to date cooling degree days 16 27  
Year to date cooling degree days 166 131  
Growing Degree Days 16 (Base 50)    
Moisture  
Dew Point 51 °F    
Average Humidity 63    
Maximum Humidity 93    
Minimum Humidity 33    
Precipitation  
Precipitation 0.00 in 0.11 in 2.30 in (1998)
Month to date precipitation 0.36 0.96  
Year to date precipitation 5.40 5.69  
Sea Level Pressure  
Sea Level Pressure 30.15 in    
Wind  
Wind Speed 5 mph (North)    
Max Wind Speed 14 mph    
Max Gust Speed 17 mph    
Visibility 10 miles    
Events      
T = Trace of Precipitation, MM = Missing Value Source: NWS Daily Summary

Daily Weather History Graph

Daily Weather History Graph

Search for Another Location

Airport:

Trip Planner

Search our weather history database for the weather conditions in past years. The results will help you decide how hot, cold, wet, or windy it might be!

Date:

Astronomy

Mar. 09, 2014 Rise Set
Actual Time 7:41 AM EDT 7:30 PM EDT
Civil Twilight 7:18 AM EDT 7:53 PM EDT
Nautical Twilight 6:50 AM EDT 8:21 PM EDT
Astronomical Twilight 6:23 AM EDT 8:48 PM EDT
Moon 1:42 PM EDT (3/9) 3:45 AM EDT (3/9)
Length of Visible Light 12h 35m
Length of Day
11h 48m
First Quarter, 61% of the Moon is Illuminated
Mar 9
First Quarter
Mar 16
Full
Mar 23
Last Quarter
Mar 30
New
Apr 7
First Quarter

Hourly Weather History & Observations

Time (EDT) Temp. Dew Point Humidity Pressure Visibility Wind Dir Wind Speed Gust Speed Precip Events Conditions
12:53 AM 55.0 °F 52.0 °F 89% 30.16 in 10.0 mi North 4.6 mph - N/A   Clear
1:53 AM 55.9 °F 51.1 °F 84% 30.16 in 10.0 mi North 3.5 mph - N/A   Clear
3:53 AM 55.0 °F 51.1 °F 86% 30.15 in 10.0 mi Calm Calm - N/A   Clear
4:53 AM 54.0 °F 51.1 °F 90% 30.14 in 10.0 mi North 3.5 mph - N/A   Clear
5:53 AM 54.0 °F 51.1 °F 90% 30.14 in 10.0 mi North 4.6 mph - N/A   Clear
6:53 AM 54.0 °F 51.1 °F 90% 30.16 in 10.0 mi North 4.6 mph - N/A   Clear
7:53 AM 54.0 °F 51.1 °F 90% 30.19 in 10.0 mi North 5.8 mph - N/A   Clear
8:53 AM 59.0 °F 54.0 °F 83% 30.20 in 10.0 mi North 5.8 mph - N/A   Partly Cloudy
9:53 AM 64.0 °F 52.0 °F 65% 30.22 in 10.0 mi North 6.9 mph - N/A   Partly Cloudy
10:53 AM 69.1 °F 48.0 °F 47% 30.22 in 10.0 mi NE 4.6 mph - N/A   Partly Cloudy
11:53 AM 71.1 °F 50.0 °F 47% 30.21 in 10.0 mi Variable 5.8 mph - N/A   Clear
12:53 PM 73.9 °F 51.1 °F 45% 30.18 in 10.0 mi North 5.8 mph - N/A   Clear
1:53 PM 73.9 °F 50.0 °F 43% 30.16 in 10.0 mi Variable 4.6 mph - N/A   Partly Cloudy
2:53 PM 75.9 °F 51.1 °F 42% 30.12 in 10.0 mi West 5.8 mph - N/A   Partly Cloudy
3:53 PM 77.0 °F 46.9 °F 34% 30.12 in 10.0 mi West 6.9 mph - N/A   Partly Cloudy
4:53 PM 79.0 °F 48.0 °F 34% 30.09 in 10.0 mi Variable 3.5 mph - N/A   Scattered Clouds
5:53 PM 78.1 °F 50.0 °F 37% 30.09 in 10.0 mi Calm Calm - N/A   Scattered Clouds
6:53 PM 75.9 °F 50.0 °F 40% 30.10 in 10.0 mi NNW 4.6 mph - N/A   Scattered Clouds
7:53 PM 71.1 °F 51.1 °F 49% 30.10 in 10.0 mi East 5.8 mph - N/A   Scattered Clouds
8:53 PM 66.9 °F 53.1 °F 61% 30.11 in 10.0 mi ESE 8.1 mph - N/A   Scattered Clouds
9:53 PM 64.9 °F 52.0 °F 63% 30.14 in 10.0 mi ESE 3.5 mph - N/A   Partly Cloudy
10:53 PM 64.0 °F 51.1 °F 63% 30.15 in 10.0 mi South 4.6 mph - N/A   Partly Cloudy
11:53 PM 61.0 °F 51.1 °F 70% 30.16 in 10.0 mi West 4.6 mph - N/A   Clear
12:53 AM 61.0 °F 52.0 °F 72% 30.14 in 10.0 mi Calm Calm - N/A   Clear